Notices

What's New in latest Release from April 7th, 2021:

- Updated Glossary, including Speed of Maximum Gust, and Total Hourly Precipitation

- Updated national and regional climate services offices contacts and prices information

- Addition of station inventory lists for 1981-2010, 1971-2000, and 1961-1990 Normals.

If you haven't already, please take our survey and provide feedback about our website: https://eccc.sondage-survey.ca/f/LanguageSelection.aspx?s=442ca660-fcf1-47c0-95a9-59707d6fd709

Hourly Data Report for July 23, 2018

TORONTO CITY
ONTARIO
Current Station Operator: ECCC - MSC

43°40'00.000" N
79°24'00.000" W
112.50 m
6158355
71508
XTO

Download Data

Hourly Data (July 2018)
Hourly Data Report for July 23, 2018
TIME
LST
Temp Definition
°C
Dew Point Definition
°C
Rel Hum Definition
%
Precip. Amount Definition
mm

Wind Dir Definition
10's deg

Wind Spd Definition
km/h
Visibility Definition
km
Stn Press Definition
kPa
Hmdx Definition


Wind Chill Definition


Weather Definition


00:00 21.9 16.8 73 0.0 LegendMM LegendMM   99.86 27   LegendNANA
01:00 22.3 17.9 76 0.0 LegendMM LegendMM   99.83 28   LegendNANA
02:00 21.8 18.4 81 0.0 LegendMM LegendMM   99.82 28   LegendNANA
03:00 21.8 18.4 81 0.0 LegendMM LegendMM   99.84 28   LegendNANA
04:00 21.4 18.3 83 0.0 LegendMM LegendMM   99.85 28   LegendNANA
05:00 21.0 18.4 85 0.0 LegendMM LegendMM   99.91 27   LegendNANA
06:00 21.2 18.6 85 0.0 LegendMM LegendMM   100.00 28   LegendNANA
07:00 22.4 19.1 82 0.0 LegendMM LegendMM   100.07 29   LegendNANA
08:00 23.2 19.2 78 0.0 LegendMM LegendMM   100.05 30   LegendNANA
09:00 25.2 18.9 68 0.0 LegendMM LegendMM   100.04 32   LegendNANA
10:00 24.1 18.2 69 0.0 LegendMM LegendMM   100.07 30   LegendNANA
11:00 24.2 18.6 71 0.0 LegendMM LegendMM   100.12 31   LegendNANA
12:00 25.0 18.7 68 0.0 LegendMM LegendMM   100.13 32   LegendNANA
13:00 27.0 18.7 60 0.0 LegendMM LegendMM   100.10 34   LegendNANA
14:00 25.8 19.7 69 0.0 LegendMM LegendMM   100.10 33   LegendNANA
15:00 24.7 19.6 74 0.0 LegendMM LegendMM   100.08 32   LegendNANA
16:00 24.8 19.6 73 0.0 LegendMM LegendMM   100.05 32   LegendNANA
17:00 25.2 19.5 71 0.0 LegendMM LegendMM   100.02 32   LegendNANA
18:00 24.5 19.3 73 0.0 LegendMM LegendMM   100.07 32   LegendNANA
19:00 23.4 19.6 79 0.0 LegendMM LegendMM   100.10 31   LegendNANA
20:00 24.1 19.1 74 0.0 LegendMM LegendMM   100.08 31   LegendNANA
21:00 23.4 19.7 80 0.0 LegendMM LegendMM   100.11 31   LegendNANA
22:00 22.9 19.9 84 0.0 LegendMM LegendMM   100.09 30   LegendNANA
23:00 22.5 19.5 83 0.0 LegendMM LegendMM   100.07 30   LegendNANA

Notes on Data Quality.

Legend

  • E = Estimated
  • M = Missing
  • NA = Not Available*
  • [empty] = Indicates an unobserved value
Date modified: